Location: Ch�teau-Arnoux
(44.0814°N, 6.0027°E)
Time: 05:37:43
(UTC+00:00)

Cosmos 1459 Rocket - Pass Details

Date: 15 November 2019
Orbit: 938 x 999 km, 83.0° (Epoch: 14 December)

Event Time Altitude Azimuth Distance (km) Brightness Sun altitude
Rises 05:09:40 0° 195° (SSW) 3,618 7.0 -14.6°
Reaches altitude 10° 05:12:10 10° 198° (SSW) 2,685 6.2 -14.2°
Maximum altitude 05:18:16 66° 280° (W) 1,058 3.9 -13.1°
Drops below altitude 10° 05:24:32 10° 3° (N) 2,745 6.2 -12.0°
Sets 05:27:06 0° 6° (N) 3,706 6.9 -11.5°
